Temperature
6 6 6 6 7 8 8 9 9 10 12 12 12 12 13 14 14 14 15 16 16 17 19 18 18 17 17 17 16 16 16 15 15 14 14 13 13 13 13 13 13 13 12 12
5 5 7 8 8 8 8 8 8 10 11 12 11 12 13 14 14 15 15 16 17 17 18 18 18 17 17 17 17 16 16 16 15 15 15 15 14 13 13 13 13 12 12 12
5 6 8 8 8 8 8 8 8 9 10 11 11 11 12 13 14 15 16 17 17 18 18 18 18 18 18 17 17 17 17 16 16 15 15 14 13 12 12 12 12 12 12 12
5 6 7 7 7 8 7 9 9 9 9 9 10 9 11 12 13 14 15 16 17 18 18 18 18 18 18 18 18 18 17 17 16 15 14 14 14 13 14 14 13 13 12 12
5 6 6 6 7 8 8 9 9 9 9 8 9 9 10 11 12 14 14 16 17 18 18 19 19 19 19 19 18 18 18 17 17 16 15 15 15 15 14 14 13 13 12 12
5 6 6 6 7 8 8 8 8 8 7 7 8 8 9 11 12 13 14 16 17 18 18 19 19 19 19 19 19 18 18 17 17 16 16 15 15 15 14 14 13 13 13 12
4 5 6 6 6 7 7 6 6 6 6 7 9 9 9 11 12 13 14 15 17 18 18 18 19 19 19 19 18 18 18 18 17 16 16 16 16 15 15 15 14 14 13 13
2 4 5 6 6 6 6 6 6 6 6 7 9 9 10 11 12 14 15 16 16 17 18 18 19 19 19 19 19 18 18 18 17 17 16 16 16 15 15 15 14 14 14 14
2 3 5 6 6 6 6 6 7 6 6 7 8 9 9 10 11 12 13 14 15 16 17 18 18 19 19 19 19 18 18 18 18 17 17 16 16 15 15 15 14 14 14 14
2 2 4 5 6 6 6 6 6 6 6 7 8 8 9 10 11 12 12 13 14 15 16 17 18 18 18 19 19 18 18 18 18 18 17 16 16 16 15 15 14 14 14 13
2 2 3 4 4 5 5 6 5 5 6 6 7 8 10 10 11 12 12 13 14 15 16 16 17 17 18 18 18 18 18 18 18 17 17 17 16 16 15 14 14 14 14 13
2 2 2 3 4 5 5 5 5 5 5 5 6 8 10 10 10 11 11 12 13 14 15 15 16 17 17 17 18 18 17 17 17 17 17 17 16 16 15 15 14 14 13 13
2 1 1 2 3 3 4 4 4 4 4 5 6 8 10 9 9 10 10 11 12 13 14 14 15 15 16 17 17 17 17 17 17 17 16 16 15 15 15 15 14 13 13 13
3 1 1 1 2 2 3 4 4 4 4 5 6 7 8 9 9 9 9 10 11 12 12 13 14 14 15 16 16 16 17 17 16 16 16 16 15 15 15 14 14 13 13 12
2 0 1 2 3 3 3 4 5 4 5 5 6 7 8 8 8 8 8 9 10 10 11 12 13 14 14 15 15 16 16 16 16 16 15 15 15 15 14 14 13 13 12 12
0 -0 0 1 3 3 3 4 5 5 5 5 6 6 7 8 8 7 8 8 9 9 10 11 12 13 13 14 14 15 15 15 15 15 15 15 15 14 14 14 13 13 12 12
-1 -1 -0 0 2 2 3 4 5 5 5 5 5 6 7 7 7 7 7 7 8 9 9 10 11 11 13 14 14 14 15 15 15 15 15 14 14 14 14 13 13 12 12 12
-1 -1 -1 -0 1 1 3 4 5 5 5 5 5 6 6 6 7 7 7 7 7 8 8 9 10 11 12 13 13 14 14 14 14 14 14 14 14 13 13 13 12 12 12 11
0 -0 -1 -1 -0 1 3 4 4 4 4 4 5 5 5 6 7 7 7 7 7 7 8 9 10 10 11 12 13 13 13 13 13 13 13 13 13 13 13 12 12 12 11 11
0 -0 -1 -1 0 1 3 4 4 4 3 4 4 4 4 5 5 5 6 6 7 7 8 8 9 10 11 11 12 12 13 12 13 13 13 13 13 13 12 12 12 11 11 11
-1 -1 -1 -1 -0 1 2 3 4 3 2 3 4 4 4 4 4 5 5 6 6 7 7 8 9 9 10 11 11 12 12 12 12 12 12 12 12 12 12 12 11 11 11 10
-1 -1 -1 -1 -0 1 2 3 2 2 3 4 4 4 4 4 4 4 5 5 6 6 7 7 8 9 9 10 10 11 11 11 11 11 11 11 11 11 11 11 11 10 10 10
-1 -0 -0 -0 1 2 3 3 3 4 3 4 4 4 4 3 3 3 4 4 5 5 6 7 7 8 9 9 10 10 10 10 11 11 11 11 10 10 10 10 10 10 10 9
-1 -0 -1 -0 0 1 3 3 3 3 3 4 4 4 4 3 3 3 3 4 4 4 5 6 7 7 8 8 9 9 10 10 10 10 10 10 10 10 9 9 9 9 9 9
-1 -1 -1 -1 0 1 2 3 3 3 3 3 3 3 3 3 3 3 3 3 3 4 5 5 6 6 7 8 8 9 9 9 9 9 9 9 9 9 9 9 9 9 9 9
-1 -1 -1 -0 0 0 1 2 2 2 2 3 3 3 3 3 3 3 3 3 3 3 4 5 5 6 6 7 8 8 8 8 9 8 8 8 8 8 8 8 8 8 8 8
Wind_Speed
4 5 10 13 14 11 9 10 11 10 8 9 14 16 14 12 10 12 13 14 15 18 18 18 19 19 19 19 21 22 21 20 18 15 15 14 14 12 11 11 15 18 18 18
3 11 14 11 11 12 14 15 12 10 8 9 11 15 14 13 13 13 14 15 16 16 14 15 17 19 21 23 24 24 23 22 21 18 16 13 11 9 9 8 12 17 17 17
10 7 8 11 12 12 15 15 13 10 8 8 8 12 14 13 13 14 14 14 15 18 18 17 18 20 21 23 25 24 25 23 22 17 11 9 7 5 6 9 11 13 17 17
8 8 8 11 13 11 14 11 12 11 7 6 6 8 11 12 14 17 17 16 16 16 17 17 18 19 21 24 24 24 24 23 22 19 17 17 14 13 13 12 11 11 14 15
7 5 8 12 13 11 8 7 9 10 9 8 7 7 8 9 15 18 18 17 17 16 16 17 18 20 21 22 22 23 23 23 22 22 21 20 16 13 8 8 11 11 11 13
9 6 5 7 8 8 5 4 5 6 6 11 13 10 8 9 15 15 16 16 16 16 16 16 16 17 19 20 20 21 23 23 23 23 22 22 20 15 12 12 13 12 9 10
6 6 5 5 5 5 5 4 4 5 7 9 9 10 10 10 11 15 16 16 16 15 15 15 15 16 17 19 20 21 23 24 23 24 23 23 22 20 18 17 16 13 10 11
3 5 4 3 5 5 8 9 7 6 6 4 6 11 8 9 10 10 12 11 12 14 14 15 16 17 18 20 21 21 24 23 24 24 23 22 20 17 15 15 13 15 13 13
3 5 4 5 5 5 5 8 6 3 2 4 6 6 7 6 8 9 10 9 11 12 13 14 14 15 17 19 21 22 23 22 23 24 22 20 19 18 16 15 13 12 10 9
3 5 6 4 3 5 5 4 3 5 5 6 6 7 6 6 10 11 10 10 11 10 11 12 12 13 15 17 18 19 21 23 21 23 21 18 19 19 16 14 15 14 13 11
3 4 4 2 4 5 3 3 3 4 4 4 5 6 5 8 8 9 10 10 10 9 8 9 9 10 11 12 15 18 19 18 18 20 19 18 18 17 15 15 15 14 13 13
2 2 4 6 5 4 4 4 4 4 4 4 4 7 3 3 3 4 6 6 6 6 6 6 7 7 7 10 12 15 17 18 18 18 17 18 17 16 16 16 15 14 13 13
1 1 3 4 3 2 2 4 6 5 4 5 6 8 5 7 8 6 6 6 5 4 4 4 4 6 7 9 11 13 14 15 15 16 16 16 15 16 17 16 14 14 14 13
2 2 4 6 7 5 8 9 8 7 7 7 10 12 13 10 10 10 8 7 4 3 3 3 4 5 6 7 9 11 12 12 12 13 15 16 16 17 16 15 14 14 14 14
1 4 6 10 11 9 12 15 13 13 13 11 11 13 15 11 8 7 7 8 6 5 4 3 3 4 4 4 6 9 10 11 12 13 14 15 14 13 13 13 13 13 13 13
1 3 4 8 9 10 13 15 15 15 14 14 14 15 11 9 6 6 7 7 6 5 5 5 4 3 4 5 5 7 9 10 11 13 13 12 12 12 13 13 13 13 12 12
3 3 2 5 7 7 8 9 11 10 9 10 12 12 8 8 7 6 6 7 7 6 6 6 5 4 5 5 5 7 8 8 10 11 11 11 12 12 12 12 12 13 12 11
6 4 3 4 3 6 6 4 5 8 8 7 7 8 8 10 8 5 5 6 7 7 7 7 5 5 4 2 2 3 5 8 9 9 10 10 11 12 11 12 12 12 10 11
10 6 4 3 5 8 7 5 4 5 6 4 5 7 8 9 6 5 6 7 7 6 6 6 5 5 3 2 2 3 5 7 8 9 9 10 11 12 12 12 12 10 9 9
6 6 5 4 5 6 5 6 5 3 3 4 4 6 7 5 4 7 9 10 9 8 6 5 5 3 2 1 2 5 6 7 8 8 8 9 10 11 12 12 10 8 8 9
3 4 7 7 7 7 7 7 2 2 4 5 4 5 5 3 6 8 9 9 8 8 7 6 4 3 2 1 2 4 5 7 6 6 7 7 9 10 10 9 8 9 8 9
6 5 6 6 7 8 4 1 1 4 4 4 4 4 5 6 6 7 8 8 9 9 7 6 4 4 3 1 3 4 4 4 5 6 7 7 7 7 8 10 9 9 10 9
7 7 5 7 8 6 3 4 6 5 5 5 4 5 5 5 6 7 7 8 8 8 7 6 4 4 3 2 2 4 3 4 5 6 6 6 7 7 8 10 10 9 8 8
5 4 5 6 9 9 8 7 6 5 6 6 6 6 4 5 7 8 8 7 7 8 7 5 5 5 4 3 2 3 3 4 6 7 6 7 7 7 7 7 8 8 8 8
8 4 5 9 9 9 8 7 6 7 7 7 7 6 5 5 7 8 8 8 7 7 6 5 4 5 6 4 3 2 3 5 6 6 6 6 6 7 7 5 6 7 7 9
8 9 9 11 10 9 10 8 8 8 8 8 8 8 7 6 7 8 8 8 7 7 7 6 6 6 6 4 4 3 4 6 7 6 6 6 6 6 6 6 4 4 5 9
Wind_Direction
211 205 222 222 222 243 248 246 253 252 251 234 238 246 247 239 224 226 224 218 214 216 213 203 199 195 190 188 186 185 185 183 180 182 183 185 190 189 190 191 189 188 188 186
229 234 233 231 234 243 249 248 254 270 261 249 249 252 248 243 233 226 225 222 217 218 217 206 200 195 192 191 190 188 188 185 185 188 189 189 184 186 188 187 190 190 188 187
230 245 239 231 233 236 244 239 241 255 282 271 265 263 247 245 239 235 229 225 219 216 214 208 200 197 195 194 192 191 190 188 189 185 177 165 157 156 177 191 196 195 191 191
247 249 247 241 236 230 247 238 242 248 251 253 221 255 246 234 238 235 232 229 225 220 215 210 202 198 197 198 194 192 191 190 189 183 180 179 184 191 196 193 195 192 193 192
245 247 240 242 237 230 244 239 239 242 243 255 239 247 258 224 234 234 230 227 227 221 214 210 206 201 199 197 194 194 191 191 189 187 187 188 194 197 185 179 184 190 194 194
254 254 237 246 248 232 241 250 251 242 234 242 229 226 261 218 223 230 231 228 226 222 217 213 208 201 199 196 194 192 191 192 189 189 190 193 195 189 179 185 190 194 195 196
282 261 235 241 265 237 208 194 209 215 220 237 201 213 245 230 225 226 230 231 227 221 217 213 207 201 199 195 194 192 191 193 191 191 193 196 197 193 193 193 195 194 195 200
272 272 232 226 232 228 214 197 203 204 212 242 199 224 243 235 236 235 236 235 228 220 217 214 209 203 200 197 194 193 193 193 191 193 196 197 196 196 200 197 196 198 202 203
246 264 258 257 256 221 209 209 215 231 259 257 235 250 283 256 243 239 242 237 231 225 222 220 214 208 202 197 196 194 193 194 193 194 195 195 195 196 198 195 194 198 199 194
225 265 270 261 264 234 216 194 180 202 206 234 248 244 239 235 227 232 236 240 239 233 227 224 218 211 206 201 196 194 194 195 193 193 194 195 195 197 195 191 195 196 195 189
218 249 285 274 217 228 208 201 214 219 220 206 239 255 221 222 227 228 234 240 238 232 231 230 224 212 204 198 193 193 194 194 193 194 193 193 194 194 191 193 196 196 191 188
238 236 261 254 258 242 208 199 195 222 245 227 241 263 300 305 293 263 258 259 264 252 242 233 225 204 193 193 192 192 193 193 193 192 191 193 191 189 191 195 194 191 191 191
268 243 304 318 313 314 240 222 224 238 245 231 234 259 310 343 343 333 311 295 284 287 288 268 232 206 197 196 193 191 191 193 191 187 188 189 189 189 193 194 190 188 189 188
305 213 213 231 251 260 271 265 244 223 233 246 241 266 296 322 332 333 330 319 309 298 293 271 239 220 207 198 192 189 190 187 183 183 187 189 191 192 192 189 186 186 186 187
133 241 244 256 264 257 262 261 249 233 230 236 255 263 276 295 309 317 326 329 330 330 318 301 259 227 210 201 195 189 188 183 179 181 187 193 190 187 184 183 183 183 184 186
196 248 272 273 268 266 266 257 251 247 244 243 256 264 273 289 306 316 322 326 321 315 308 304 287 235 212 208 202 192 188 183 179 183 187 184 179 179 181 182 180 180 181 181
229 209 263 272 288 295 261 247 239 238 238 236 247 261 293 296 295 299 312 318 318 322 316 302 291 263 234 217 206 199 189 176 176 181 179 176 175 178 180 177 176 179 180 178
207 196 221 268 297 247 246 271 253 246 247 254 267 285 290 286 279 278 309 316 315 320 317 308 298 287 271 235 204 190 169 168 173 175 174 173 172 174 172 172 177 179 176 177
201 196 214 232 251 268 280 285 255 240 259 294 289 300 312 309 288 283 325 325 307 302 300 299 298 290 280 245 172 153 160 163 166 172 174 174 171 169 169 173 176 174 171 173
191 188 204 226 244 252 269 298 291 217 252 323 321 314 316 336 289 286 323 327 323 323 317 314 313 313 302 285 158 154 164 167 177 178 173 170 168 169 173 174 171 166 165 168
193 205 215 228 243 262 280 304 346 177 257 297 299 301 310 284 261 284 308 318 320 323 319 319 320 310 287 256 161 168 171 185 183 163 155 161 165 167 168 164 160 156 154 154
203 207 215 217 230 250 288 36 185 242 262 275 289 299 298 292 296 303 311 318 324 324 318 320 322 316 311 261 162 173 191 185 150 146 150 156 159 157 156 156 155 152 153 154
215 207 209 213 230 251 255 230 242 250 267 271 276 281 286 296 303 310 316 317 316 314 311 315 315 315 315 301 194 189 190 150 147 147 151 151 150 153 156 158 158 156 158 161
252 225 224 249 256 262 267 266 265 267 273 278 279 280 279 286 299 306 306 306 307 307 306 314 321 316 307 301 273 207 170 153 151 155 154 153 154 155 155 158 162 165 168 168
230 231 237 252 265 279 268 255 268 274 275 281 288 281 273 282 290 294 297 296 296 300 299 297 295 291 285 287 276 217 171 156 156 157 158 157 158 159 158 158 167 169 178 177
219 221 234 251 254 259 271 274 279 277 279 283 286 288 287 275 277 288 290 290 289 294 296 294 291 288 282 272 259 225 183 167 163 164 165 164 160 158 156 149 124 111 148 158
Height
1440 1444 1441 1439 1440 1440 1439 1438 1438 1433 1429 1430 1428 1426 1423 1421 1423 1423 1424 1426 1428 1430 1434 1438 1442 1447 1451 1456 1460 1464 1469 1473 1478 1483 1486 1490 1494 1498 1501 1505 1508 1511 1514 1517
1441 1439 1434 1435 1437 1438 1438 1438 1437 1433 1428 1427 1426 1423 1419 1417 1417 1417 1418 1420 1422 1425 1428 1432 1436 1440 1445 1449 1453 1458 1463 1467 1472 1476 1480 1485 1489 1494 1498 1501 1505 1508 1511 1514
1438 1432 1430 1432 1433 1435 1434 1434 1434 1433 1428 1426 1427 1422 1416 1411 1411 1411 1411 1413 1415 1418 1421 1425 1429 1433 1438 1442 1446 1451 1456 1461 1466 1471 1477 1482 1487 1491 1494 1497 1500 1503 1506 1509
1434 1430 1429 1429 1429 1430 1430 1427 1428 1429 1431 1431 1428 1427 1413 1408 1406 1404 1404 1406 1407 1411 1414 1418 1422 1426 1430 1435 1440 1445 1450 1455 1460 1466 1470 1474 1477 1480 1484 1489 1493 1498 1501 1505
1431 1427 1426 1426 1423 1425 1425 1423 1425 1426 1429 1431 1427 1428 1412 1404 1402 1397 1396 1397 1399 1403 1407 1410 1414 1418 1423 1428 1433 1438 1444 1448 1454 1459 1463 1467 1471 1476 1481 1485 1489 1493 1497 1500
1427 1424 1424 1422 1420 1421 1423 1424 1424 1425 1429 1429 1420 1424 1411 1400 1392 1389 1389 1390 1392 1395 1399 1403 1407 1412 1416 1422 1427 1431 1436 1441 1446 1452 1456 1460 1465 1470 1475 1479 1483 1487 1491 1495
1428 1423 1420 1420 1420 1419 1422 1427 1430 1431 1429 1422 1410 1413 1401 1389 1383 1382 1382 1383 1385 1388 1392 1396 1400 1404 1409 1414 1419 1424 1429 1434 1439 1444 1449 1454 1459 1464 1468 1472 1477 1481 1485 1488
1434 1427 1419 1418 1419 1418 1418 1422 1426 1427 1423 1415 1406 1402 1390 1381 1378 1377 1378 1378 1379 1381 1384 1388 1392 1397 1401 1406 1411 1416 1421 1426 1431 1437 1442 1447 1453 1458 1462 1467 1471 1475 1478 1482
1434 1427 1417 1415 1415 1416 1416 1416 1416 1419 1417 1416 1405 1395 1386 1377 1375 1374 1373 1373 1373 1375 1378 1381 1385 1389 1394 1399 1403 1408 1413 1419 1424 1429 1435 1440 1446 1451 1456 1460 1465 1469 1473 1477
1433 1431 1419 1415 1413 1412 1413 1413 1415 1416 1416 1412 1403 1394 1387 1377 1372 1370 1369 1369 1368 1370 1372 1375 1378 1382 1387 1391 1397 1402 1407 1412 1417 1423 1428 1433 1439 1444 1449 1454 1459 1463 1467 1472
1430 1431 1422 1417 1414 1413 1413 1414 1413 1413 1410 1409 1402 1390 1373 1370 1367 1366 1365 1365 1365 1366 1367 1369 1372 1376 1380 1385 1390 1395 1400 1405 1411 1416 1422 1427 1432 1438 1443 1448 1452 1457 1462 1466
1428 1430 1426 1418 1411 1410 1411 1412 1414 1417 1413 1407 1402 1387 1367 1367 1365 1364 1363 1363 1363 1363 1364 1366 1368 1371 1375 1379 1383 1388 1393 1398 1404 1409 1415 1420 1426 1431 1436 1441 1446 1451 1456 1460
1427 1430 1429 1422 1418 1415 1412 1410 1411 1413 1412 1405 1400 1384 1366 1366 1366 1365 1364 1362 1362 1362 1361 1363 1365 1367 1369 1373 1377 1382 1387 1392 1398 1404 1409 1414 1420 1425 1430 1435 1440 1445 1450 1454
1424 1428 1429 1427 1419 1416 1414 1408 1407 1410 1409 1402 1393 1382 1371 1369 1368 1367 1364 1362 1360 1360 1360 1360 1361 1363 1365 1369 1372 1377 1381 1387 1392 1398 1403 1408 1413 1418 1424 1429 1435 1439 1444 1448
1424 1427 1423 1418 1413 1411 1408 1403 1400 1401 1399 1399 1387 1381 1373 1372 1371 1369 1366 1362 1360 1359 1358 1358 1358 1360 1362 1364 1368 1372 1376 1381 1387 1392 1396 1401 1407 1413 1419 1424 1429 1434 1439 1443
1423 1425 1421 1414 1407 1406 1402 1395 1392 1390 1389 1387 1383 1378 1372 1371 1369 1368 1366 1363 1360 1359 1358 1357 1356 1357 1359 1361 1364 1368 1372 1376 1381 1386 1391 1396 1402 1407 1413 1418 1424 1429 1433 1438
1424 1424 1423 1416 1408 1403 1399 1388 1385 1384 1382 1381 1380 1375 1372 1371 1369 1367 1366 1363 1360 1358 1357 1355 1355 1355 1356 1358 1360 1364 1368 1372 1376 1381 1386 1391 1397 1402 1407 1413 1418 1423 1428 1432
1420 1421 1422 1418 1412 1410 1391 1382 1381 1379 1378 1377 1375 1373 1371 1369 1366 1366 1365 1363 1360 1358 1356 1354 1353 1353 1354 1355 1357 1361 1365 1368 1372 1377 1382 1387 1392 1397 1402 1407 1412 1418 1423 1427
1410 1415 1418 1416 1412 1400 1387 1381 1379 1378 1376 1376 1374 1372 1370 1367 1364 1362 1363 1362 1359 1356 1354 1353 1351 1351 1351 1352 1354 1357 1361 1365 1369 1373 1377 1382 1387 1392 1397 1402 1407 1413 1418 1422
1406 1409 1414 1413 1408 1397 1385 1378 1374 1376 1378 1376 1373 1371 1368 1366 1367 1362 1360 1359 1356 1354 1352 1350 1350 1349 1349 1350 1352 1355 1358 1361 1365 1369 1373 1377 1382 1387 1392 1397 1403 1408 1413 1417
1408 1410 1410 1409 1404 1391 1381 1376 1374 1382 1380 1374 1372 1370 1368 1366 1366 1363 1359 1357 1354 1351 1350 1349 1348 1348 1348 1349 1351 1353 1355 1358 1362 1366 1370 1374 1378 1383 1388 1393 1398 1403 1408 1413
1403 1405 1405 1403 1400 1391 1377 1376 1378 1377 1373 1371 1369 1368 1366 1363 1361 1359 1357 1354 1352 1350 1349 1347 1346 1345 1346 1347 1349 1350 1353 1356 1359 1363 1366 1371 1375 1379 1384 1389 1394 1399 1404 1408
1396 1394 1393 1392 1386 1377 1374 1374 1373 1371 1370 1368 1366 1365 1364 1362 1359 1357 1354 1352 1351 1349 1347 1346 1344 1343 1344 1345 1347 1349 1351 1354 1357 1360 1363 1367 1371 1376 1380 1385 1389 1394 1399 1403
1390 1386 1387 1384 1377 1373 1371 1370 1368 1368 1366 1364 1363 1361 1360 1358 1356 1355 1353 1351 1349 1347 1345 1344 1342 1341 1341 1343 1345 1346 1348 1351 1354 1357 1360 1364 1368 1372 1376 1381 1385 1390 1394 1398
1385 1383 1382 1378 1373 1369 1366 1366 1365 1363 1362 1360 1359 1358 1357 1355 1353 1352 1350 1348 1346 1344 1343 1341 1340 1340 1340 1341 1342 1343 1346 1348 1350 1353 1357 1360 1364 1368 1372 1377 1381 1386 1390 1394
1376 1377 1377 1371 1367 1366 1362 1361 1361 1359 1357 1356 1355 1353 1352 1351 1349 1347 1346 1344 1342 1340 1339 1338 1337 1337 1337 1337 1338 1340 1343 1345 1347 1350 1353 1357 1360 1364 1368 1373 1378 1383 1388 1392